Weather History for Pittsburgh Allegheny Co., PA

Change the Weather History Date:

Monday, October 24, 2011

  Actual Average Record
Temperature  
Mean Temperature 52 °F -  
Max Temperature 55 °F 62 °F 78 °F (1991)
Min Temperature 48 °F 36 °F 32 °F (1992)
Degree Days  
Heating Degree Days 14    
Growing Degree Days 2 (Base 50)    
Moisture  
Dew Point 44 °F    
Average Humidity 75    
Maximum Humidity 90    
Minimum Humidity 57    
Precipitation  
Precipitation 0.05 in - - ()
Sea Level Pressure  
Sea Level Pressure 30.05 in    
Wind  
Wind Speed 9 mph (SW)    
Max Wind Speed 15 mph    
Max Gust Speed 22 mph    
Visibility 9 miles    
Events Rain    
Averages and records for this station are not official NWS values.
T = Trace of Precipitation, MM = Missing Value Source: NWS Daily Summary

Daily Weather History Graph

Daily Weather History Graph

Search for Another Location

Airport:

Trip Planner

Search our weather history database for the weather conditions in past years. The results will help you decide how hot, cold, wet, or windy it might be!

Date:

Astronomy

Oct. 24, 2011 Rise Set
Actual Time 7:39 AM EDT 6:27 PM EDT
Civil Twilight 7:12 AM EDT 6:54 PM EDT
Nautical Twilight 6:40 AM EDT 7:26 PM EDT
Astronomical Twilight 6:08 AM EDT 7:58 PM EDT
Moon 4:56 AM EDT (10/24) 4:51 PM EDT (10/24)
Length of Visible Light 11h 42m
Length of Day
10h 47m
Waning Crescent, 7% of the Moon is Illuminated
Oct 24
Waning Crescent
Oct 26
New
Nov 2
First Quarter
Nov 10
Full
Nov 18
Last Quarter

Hourly Weather History & Observations

Time (EDT) Temp. Dew Point Humidity Pressure Visibility Wind Dir Wind Speed Gust Speed Precip Events Conditions
12:53 AM 50.0 °F 37.4 °F 62% 30.05 in 10.0 mi South 5.8 mph - N/A   Overcast
1:53 AM 51.1 °F 39.0 °F 63% 30.07 in 10.0 mi South 6.9 mph - N/A   Overcast
2:53 AM 50.0 °F 39.0 °F 66% 30.05 in 10.0 mi South 8.1 mph - N/A   Overcast
3:53 AM 48.0 °F 39.0 °F 71% 30.04 in 10.0 mi South 6.9 mph - N/A   Clear
4:53 AM 48.0 °F 37.9 °F 68% 30.03 in 10.0 mi South 8.1 mph - N/A   Scattered Clouds
5:53 AM 50.0 °F 37.9 °F 63% 30.02 in 10.0 mi South 9.2 mph - N/A   Overcast
6:53 AM 50.0 °F 37.9 °F 63% 30.02 in 10.0 mi South 9.2 mph - N/A   Overcast
7:53 AM 50.0 °F 37.9 °F 63% 30.02 in 10.0 mi South 11.5 mph - N/A   Partly Cloudy
8:53 AM 51.1 °F 37.9 °F 61% 30.02 in 10.0 mi South 11.5 mph - N/A   Partly Cloudy
9:53 AM 53.1 °F 39.0 °F 59% 30.04 in 10.0 mi SW 8.1 mph - N/A   Overcast
10:53 AM 55.9 °F 41.0 °F 57% 30.04 in 10.0 mi WSW 10.4 mph - 0.00 in   Mostly Cloudy
11:53 AM 55.0 °F 42.1 °F 62% 30.05 in 10.0 mi West 11.5 mph - N/A   Overcast
12:53 PM 53.1 °F 45.0 °F 74% 30.04 in 4.0 mi SW 8.1 mph - 0.01 in Rain Light Rain
1:16 PM 53.6 °F 46.4 °F 77% 30.00 in 7.0 mi South 11.5 mph - 0.02 in Rain Light Rain
1:25 PM 51.8 °F 46.4 °F 82% 29.99 in 10.0 mi South 13.8 mph - 0.02 in Rain Light Rain
1:53 PM 54.0 °F 48.0 °F 80% 30.01 in 10.0 mi SSW 9.2 mph - 0.02 in   Mostly Cloudy
2:53 PM 53.6 °F 48.2 °F 82% 30.00 in 9.0 mi WSW 15.0 mph 21.9 mph N/A Rain Light Rain
3:53 PM 54.0 °F 48.9 °F 83% 30.02 in 10.0 mi SW 10.4 mph - 0.01 in   Mostly Cloudy
4:53 PM 54.0 °F 48.9 °F 83% 30.03 in 10.0 mi SW 6.9 mph - N/A   Scattered Clouds
5:00 PM 53.6 °F 48.2 °F 82% 30.01 in 10.0 mi SW 9.2 mph - N/A   Overcast
5:53 PM 54.0 °F 48.9 °F 83% 30.05 in 10.0 mi WSW 8.1 mph - N/A   Overcast
6:03 PM 53.6 °F 48.2 °F 82% 30.03 in 10.0 mi WSW 9.2 mph - N/A   Mostly Cloudy
6:12 PM 53.6 °F 48.2 °F 82% 30.03 in 10.0 mi West 9.2 mph - N/A   Mostly Cloudy
6:49 PM 53.6 °F 48.2 °F 82% 30.04 in 10.0 mi West 8.1 mph - N/A   Mostly Cloudy
6:53 PM 52.0 °F 48.0 °F 86% 30.06 in 10.0 mi WSW 9.2 mph - N/A   Scattered Clouds
7:53 PM 51.8 °F 46.4 °F 82% 30.07 in 10.0 mi WSW 6.9 mph - N/A   Clear
8:53 PM 50.0 °F 46.9 °F 89% 30.11 in 8.0 mi WSW 9.2 mph - N/A   Clear
9:53 PM 50.0 °F 46.4 °F 87% 30.12 in 6.0 mi WSW 8.1 mph - N/A   Clear
10:53 PM 48.9 °F 46.0 °F 90% 30.15 in 4.0 mi WSW 6.9 mph - N/A   Clear
11:53 PM 48.9 °F 46.0 °F 90% 30.15 in 5.0 mi SW 9.2 mph - 0.01 in   Clear